Regional Weather Roundup
Issued by NWS

Home | Current Version | Previous Version | Text Only | Print | Product List | Glossary On
Versions: 1 2 3 4 5 6 7 8 9 10 11 12 13 14 15 16 17 18 19 20 21 22 23 24 25 26 27 28 29 30 31 32 33 34 35 36 37 38 39 40 41 42 43 44 45 46 47 48 49 50
000
ASUS43 KTOP 281508
RWRKS

WEATHER ROUNDUP FOR KANSAS
NATIONAL WEATHER SERVICE GOODLAND KS
1000 AM CDT FRI AUG 28 2015

NOTE:  "FAIR" INDICATES FEW OR NO CLOUDS BELOW 12,000 FEET WITH NO
SIGNIFICANT WEATHER AND/OR OBSTRUCTIONS TO VISIBILITY.

KSZ001>006-013>018-027>032-041>047-281600-
NORTHWEST KANSAS

CITY           SKY/WX    TMP DP  RH WIND       PRES   REMARKS
GOODLAND       SUNNY     77  56  48 NW15G22   30.07R
HAYS           SUNNY     77  61  57 NW14      29.95S
HILL CITY      SUNNY     77  64  64 NW12      29.96R
RUSSELL        SUNNY     77  68  73 NW12      29.92R
$$

KSZ061>065-074>080-084>089-281600-
SOUTHWEST KANSAS

CITY           SKY/WX    TMP DP  RH WIND       PRES   REMARKS
DODGE CITY     SUNNY     75  63  66 NW14      30.01R
ELKHART          N/A     73  62  68 NW5         N/A
GARDEN CITY    SUNNY     75  61  61 NW10      30.04R
GREAT BEND     MOSUNNY   75  64  69 NW10      29.94R
LIBERAL        SUNNY     77  66  69 NW10      30.05R
PRATT          MOSUNNY   77  64  65 W15       29.97R
$$

KSZ066>073-081>083-090>101-281600-
SOUTHEAST KANSAS

CITY           SKY/WX    TMP DP  RH WIND       PRES   REMARKS
CHANUTE        LGT RAIN  69  66  90 S10       30.01R
COFFEYVILLE    CLOUDY    69  66  90 S7        30.02R
HUTCHINSON     MOSUNNY   77  66  68 SW14      29.93R
MEDICINE LODGE   N/A     74  68  81 S3        29.95R
NEWTON         MOSUNNY   75  63  64 S20       29.96S
WICHITA INTL   PTSUNNY   74  68  81 S16       29.94S
WICHITA JABRA  PTSUNNY   73  67  81 S10       29.94S
WICHITA MCCONL PTSUNNY   72  64  77 SE12      29.94F
WINFIELD       CLOUDY    73  67  81 SE10      29.97S
$$

KSZ007>012-019>026-033>040-048>060-102>105-281600-
NORTHEAST KANSAS

CITY           SKY/WX    TMP DP  RH WIND       PRES   REMARKS
CONCORDIA      MOSUNNY   77  68  73 SW14      29.88F
EMPORIA        PTSUNNY   68  67  96 S13       29.96S
LAWRENCE       CLOUDY    68  66  93 S9        29.96S
MANHATTAN      MOSUNNY   77  68  73 SW15G24   29.89S
MARYSVILLE     MOSUNNY  N/A N/A N/A SW17      29.88S
OLATHE IND     CLOUDY    68  65  90 S13       29.98F
OLATHE EXE     CLOUDY    68  64  87 S12       29.98S
SALINA         SUNNY     81  66  60 SW20      29.90S
TOPEKA BILLARD CLOUDY    71  68  90 S13       29.91F
TOPEKA FORBES  CLOUDY    71  67  87 SE15      29.92F
$$


USA.gov is the U.S. government's official web portal to all federal, state and local government web resources and services.